User: anonymous   Login
Location: Unspecified
(0.0000°N, 0.0000°E)
Time: 22:07:45
(UTC+00:00)
Language:

FALCON 9 R/B - Orbit

View from above orbital plane
View from above orbital plane
View from above satellite
View from above satellite

Ground track
Ground track

The orbit data is extracted from the following two-line orbital elements,

1 37253U 10066K   15142.15399366  .00012262  00000-0  10803-2 0  9995
2 37253 034.5307 033.4880 4322557 012.1526 355.6532 06.82819048108559
Epoch (UTC): 22 May 2015 03:41:45
Eccentricity: 0.4322557
inclination: 34.5307°
perigee height: 285 km
apogee height: 10431 km
right ascension of ascending node: 33.4880°
argument of perigee: 12.1526°
revolutions per day: 6.82819048
mean anomaly at epoch: 355.6532°
orbit number at epoch: 10855

The dashed part of the orbit path shows where the satellite is in the earth's shadow,  

DLR